YAMAL 300K

Last updated on Thu Jul 03 2025 00:02:46 GMT+0000 (Coordinated Universal Time)

1 38978U 12061B 25183.53152184 .00000079 00000+0 00000+0 0 9997 2 38978 0.0196 71.4010 0000497 195.6491 28.0582 1.00273153 46121
UTC large
Height (km)
Speed (km/s)
/
Latitude / Longitude
Inclination (degrees)
Orbital Period (minutes)
Azimuth
Elevation
Range (km)
Doppler Factor

Next 0 passes for location: London (51.5072 / 0.1276)

Sorry there are no passes over London.